Location: Le Domaine
(47.0333°N, 76.5361°W)
Time: 02:09:22
(UTC-05:00)

Transit 2A Rocket - All Passes

Search period start: 14 November 2019 00:00
Search period end: 24 November 2019 00:00
Orbit: 594 x 909 km, 66.7° (Epoch: 14 November)

Date Brightness Start Highest point End Pass type
(mag) Time Alt. Az. Time Alt. Az. Time Alt. Az.
14 Nov - 01:10:34 10° WNW 01:13:09 15° NW 01:15:41 10° N night (unlit)
14 Nov - 06:23:14 10° NNW 06:26:58 28° NE 06:30:47 10° ESE visible
14 Nov - 08:05:31 10° NW 08:09:37 42° WSW 08:13:53 10° S daylight
14 Nov - 22:42:35 10° SSW 22:47:20 68° ESE 22:51:48 10° NE night (unlit)
15 Nov - 00:26:44 10° W 00:30:16 21° NW 00:33:40 10° N night (unlit)
15 Nov - 05:41:05 10° N 05:44:09 19° NE 05:47:16 10° E visible
15 Nov - 07:22:50 10° NW 07:27:11 76° WSW 07:31:41 10° SSE daylight
15 Nov - 22:00:28 10° S 22:04:55 38° ESE 22:09:05 10° NE night (unlit)
15 Nov - 23:43:19 10° WSW 23:47:29 31° NW 23:51:28 10° NNE night (unlit)
16 Nov - 04:59:11 10° N 05:01:14 13° NNE 05:03:17 10° ENE visible
16 Nov - 06:40:20 10° NNW 06:44:39 62° NE 06:49:06 10° SE daylight
16 Nov - 08:23:57 10° WNW 08:26:44 17° WSW 08:29:35 10° SSW daylight
16 Nov - 21:18:51 10° SSE 21:22:34 22° ESE 21:26:04 10° ENE night (unlit)
16 Nov - 23:00:14 10° SW 23:04:50 50° NW 23:09:09 10° NNE night (unlit)
17 Nov - 00:46:45 10° NW 00:48:23 12° NNW 00:49:59 10° N night (unlit)
17 Nov - 05:57:58 10° NNW 06:02:01 37° NE 06:06:11 10° ESE visible
17 Nov - 07:40:40 10° NW 07:44:26 29° WSW 07:48:21 10° S daylight
17 Nov - 20:38:14 10° SE 20:40:18 13° ESE 20:42:18 10° E night (unlit)
17 Nov - 22:17:29 10° SW 22:22:15 85° WNW 22:26:43 10° NNE night (unlit)
18 Nov - 00:02:30 10° WNW 00:05:25 16° NW 00:08:15 10° N night (unlit)
18 Nov - 05:15:44 10° NNW 05:19:17 24° NE 05:22:55 10° E visible
18 Nov - 06:57:49 10° NW 07:02:03 51° WSW 07:06:27 10° SSE daylight
18 Nov - 21:35:06 10° SSW 21:39:46 55° ESE 21:44:08 10° NE night (unlit)
18 Nov - 23:18:49 10° W 23:22:34 24° NW 23:26:10 10° NNE night (unlit)
19 Nov - 04:33:38 10° N 04:36:26 16° NE 04:39:14 10° ENE visible
19 Nov - 06:15:13 10° NW 06:19:34 89° ENE 06:24:07 10° SSE visible
19 Nov - 08:00:08 10° W 08:01:27 11° WSW 08:02:48 10° SW daylight
19 Nov - 20:53:09 10° S 20:57:21 32° ESE 21:01:19 10° NE night (unlit)
19 Nov - 22:35:31 10° WSW 22:39:50 36° NW 22:43:56 10° NNE night (unlit)
20 Nov - 03:51:56 10° N 03:53:28 12° NNE 03:55:01 10° NE visible
20 Nov - 05:32:45 10° NNW 05:37:00 52° NE 05:41:25 10° SE visible
20 Nov - 07:15:58 10° WNW 07:19:13 20° WSW 07:22:33 10° SSW daylight
20 Nov - 20:11:48 10° SSE 20:15:02 18° ESE 20:18:09 10° ENE night (unlit)
20 Nov - 21:52:33 10° SW 21:57:11 60° NW 22:01:34 10° NNE night (unlit)
20 Nov - 23:38:30 10° WNW 23:40:36 13° NNW 23:42:41 10° N night (unlit)
21 Nov - 04:50:26 10° NNW 04:54:20 32° NE 04:58:22 10° ESE visible
21 Nov - 06:32:53 10° NW 06:36:53 35° WSW 06:41:03 10° S visible
21 Nov - 19:32:35 10° ESE 19:32:48 10° ESE 19:33:01 10° ESE night (unlit)
21 Nov - 21:09:55 10° SSW 21:14:39 80° ESE 21:19:05 10° NE night (unlit)
21 Nov - 22:54:29 10° W 22:57:41 18° NW 23:00:48 10° N night (unlit)
22 Nov - 04:08:14 10° N 04:11:34 21° NE 04:14:58 10° E visible
22 Nov - 05:50:09 10° NW 05:54:27 63° WSW 05:58:59 10° SSE visible
22 Nov - 20:27:41 10° S 20:32:12 45° ESE 20:36:26 10° NE night (unlit)
22 Nov - 22:10:56 10° WSW 22:14:52 27° NW 22:18:39 10° NNE night (unlit)
23 Nov - 03:26:14 10° N 03:28:41 15° NE 03:31:10 10° ENE visible
23 Nov - 05:07:36 10° NNW 05:11:57 74° NE 05:16:31 10° SE visible
23 Nov - 06:51:39 10° WNW 06:53:57 14° WSW 06:56:19 10° SW daylight
23 Nov - 19:45:54 10° S 19:49:49 26° ESE 19:53:32 10° ENE night (unlit)
23 Nov - 21:27:45 10° WSW 21:32:10 43° NW 21:36:22 10° NNE night (unlit)
23 Nov - 23:15:05 10° NW 23:15:51 10° NNW 23:16:37 10° NNW night (unlit)
